Asheville, NC

12:55 AM EDT on July 21, 2017 (GMT -0400)
Asheville Regional

Weather History for KAVL - March, 2012

Change the Weather History Date:

Thursday, March 29, 2012

  Actual Average Record
Temperature  
Mean Temperature 65 °F 50 °F  
Max Temperature 77 °F 63 °F 84 °F (1907)
Min Temperature 52 °F 38 °F 19 °F (1982)
Degree Days  
Heating Degree Days 0 15  
Month to date heating degree days 255 526  
Since 1 July heating degree days 3061 3743  
Cooling Degree Days 0 0  
Month to date cooling degree days 1 0  
Year to date cooling degree days 1 0  
Growing Degree Days 14 (Base 50)    
Moisture  
Dew Point 48 °F    
Average Humidity 60    
Maximum Humidity 83    
Minimum Humidity 36    
Precipitation  
Precipitation 0.00 in 0.13 in 3.66 in (1991)
Month to date precipitation 2.45 3.58  
Year to date precipitation 7.89 11.01  
Snow  
Snow 0.00 in 0.00 in 0.50 in (1941)
Month to date snowfall T 1.8  
Since 1 July snowfall T 9.1  
Snow Depth 0.00 in    
Sea Level Pressure  
Sea Level Pressure 29.93 in    
Wind  
Wind Speed 6 mph (NNW)    
Max Wind Speed 22 mph    
Max Gust Speed 30 mph    
Visibility 10 miles    
Events      
T = Trace of Precipitation, MM = Missing Value Source: NWS Daily Summary

Daily Weather History Graph

Daily Weather History Graph

Search for Another Location

Airport or City:

Trip Planner

Search our weather history database for the weather conditions in past years. The results will help you decide how hot, cold, wet, or windy it might be!

Date:

Astronomy

Mar. 29, 2012 Rise Set
Actual Time 7:20 AM EDT 7:49 PM EDT
Civil Twilight 6:54 AM EDT 8:15 PM EDT
Nautical Twilight 6:24 AM EDT 8:45 PM EDT
Astronomical Twilight 5:54 AM EDT 9:16 PM EDT
Moon 11:38 AM EDT (3/29) 1:29 AM EDT (3/29)
Length of Visible Light 13h 20m
Length of Day
12h 29m
Waxing Crescent, 39% of the Moon is Illuminated
Mar 29
Waxing Crescent
Mar 30
First Quarter
Apr 6
Full
Apr 13
Last Quarter
Apr 21
New

Hourly Weather History & Observations

Time (EDT) Temp. Dew Point Humidity Pressure Visibility Wind Dir Wind Speed Gust Speed Precip Events Conditions
12:54 AM 57.9 °F 48.9 °F 72% 29.95 in 10.0 mi Calm Calm - N/A   Clear
1:54 AM 57.0 °F 48.9 °F 74% 29.93 in 10.0 mi Calm Calm - N/A   Clear
2:54 AM 55.0 °F 48.9 °F 80% 29.92 in 10.0 mi Calm Calm - N/A   Clear
3:54 AM 53.1 °F 48.0 °F 83% 29.91 in 10.0 mi Calm Calm - N/A   Clear
4:54 AM 55.0 °F 48.0 °F 77% 29.91 in 10.0 mi Calm Calm - N/A   Clear
5:54 AM 55.0 °F 48.0 °F 77% 29.92 in 10.0 mi Calm Calm - N/A   Clear
6:54 AM 55.0 °F 48.0 °F 77% 29.93 in 10.0 mi Calm Calm - N/A   Clear
7:54 AM 57.0 °F 48.9 °F 74% 29.94 in 10.0 mi Calm Calm - N/A   Clear
8:54 AM 63.0 °F 53.1 °F 70% 29.95 in 10.0 mi NNW 5.8 mph - N/A   Clear
9:54 AM 68.0 °F 51.1 °F 55% 29.96 in 10.0 mi North 3.5 mph - N/A   Clear
10:54 AM 70.0 °F 51.1 °F 51% 29.96 in 10.0 mi North 10.4 mph 16.1 mph N/A   Overcast
11:54 AM 73.9 °F 50.0 °F 43% 29.96 in 10.0 mi NNW 23.0 mph 29.9 mph N/A   Mostly Cloudy
12:54 PM 75.0 °F 48.0 °F 38% 29.95 in 10.0 mi NNW 18.4 mph 25.3 mph N/A   Scattered Clouds
1:54 PM 75.0 °F 46.9 °F 37% 29.94 in 10.0 mi WNW 11.5 mph 21.9 mph N/A   Mostly Cloudy
2:54 PM 73.0 °F 48.0 °F 41% 29.94 in 10.0 mi NNW 13.8 mph 23.0 mph N/A   Mostly Cloudy
3:54 PM 75.9 °F 48.0 °F 37% 29.91 in 10.0 mi North 12.7 mph 18.4 mph N/A   Scattered Clouds
4:54 PM 75.9 °F 48.0 °F 37% 29.89 in 10.0 mi NNW 11.5 mph - N/A   Clear
5:54 PM 73.9 °F 46.9 °F 38% 29.90 in 10.0 mi North 8.1 mph 17.3 mph N/A   Clear
6:54 PM 73.0 °F 46.0 °F 38% 29.91 in 10.0 mi NNW 13.8 mph - N/A   Clear
7:54 PM 70.0 °F 45.0 °F 41% 29.92 in 10.0 mi NNW 5.8 mph - N/A   Clear
8:54 PM 68.0 °F 46.0 °F 45% 29.93 in 10.0 mi Calm Calm - N/A   Clear
9:54 PM 66.0 °F 46.9 °F 50% 29.95 in 10.0 mi Calm Calm - N/A   Clear
10:54 PM 61.0 °F 48.0 °F 62% 29.96 in 10.0 mi Calm Calm - N/A   Partly Cloudy
11:54 PM 57.9 °F 48.9 °F 72% 29.96 in 10.0 mi Calm Calm - N/A   Clear